GEC8233 KLAX-EDDF

Flight info

Callsign GEC8233
Flight time N/A
Altitude 31000
Route OSHNN1 BEALE Q842 WINEN DCT KU60O DCT KU78Q DCT KU06S/N0479F330 DCT KU15U DCT EMLIK DCT 52N100W 57N090W 60N080W DCT BEPEG/N0472F350 DCT NALDI/M082F350 DCT AVPUT DCT 66N050W 6530N04000W 64N030W 61N020W DCT ETILO/N0463F350 DCT EVNAL/N0466F370 DCT ERKIT N110 DOLAS DCT NAVPI DCT SOGPO DCT DIXAT DIXAT1A
Aircraft B77L/H-SDE1E2E3FGHIJ2J3J4J5M1RWXY/LB1D1

Departure

Time 2026-04-23 15:35
Airport Los Angeles International Airport (KLAX)

Arrival

Time N/A
Airport Frankfurt Main Airport (EDDF)
Time Latitude Longitude Altitude Speed Heading
2026-04-23 15:06 33.93319 -118.38232 139 ft 0 kts 224°
2026-04-23 15:28 33.93327 -118.38224 139 ft 4 kts 226°
2026-04-23 15:28 33.93344 -118.38200 139 ft 4 kts 237°
2026-04-23 15:28 33.93356 -118.38172 139 ft 4 kts 258°
2026-04-23 15:28 33.93357 -118.38149 139 ft 4 kts 303°
2026-04-23 15:29 33.93354 -118.38142 139 ft 1 kts
2026-04-23 15:29 33.93353 -118.38142 139 ft 0 kts
2026-04-23 15:32 33.93380 -118.38141 139 ft 8 kts
2026-04-23 15:32 33.93461 -118.38138 139 ft 13 kts
2026-04-23 15:32 33.93552 -118.38137 139 ft 13 kts
2026-04-23 15:33 33.93613 -118.38173 139 ft 9 kts 297°
2026-04-23 15:33 33.93619 -118.38244 139 ft 8 kts 285°
2026-04-23 15:33 33.93660 -118.38287 139 ft 8 kts 350°
2026-04-23 15:33 33.93707 -118.38313 139 ft 8 kts 306°
2026-04-23 15:34 33.93721 -118.38377 139 ft 10 kts 275°
2026-04-23 15:34 33.93712 -118.38517 139 ft 31 kts 262°
2026-04-23 15:34 33.93659 -118.39057 140 ft 100 kts 263°
2026-04-23 15:34 33.93542 -118.40170 140 ft 162 kts 263°
2026-04-23 15:35 33.93392 -118.41691 311 ft 196 kts 263°
2026-04-23 15:35 33.93220 -118.43375 801 ft 208 kts 263°
2026-04-23 15:35 33.92957 -118.45112 1501 ft 212 kts 255°
2026-04-23 15:35 33.92379 -118.46681 2332 ft 207 kts 242°
2026-04-23 15:36 33.91523 -118.48109 2821 ft 206 kts 230°
2026-04-23 15:36 33.90567 -118.49405 3125 ft 216 kts 230°
2026-04-23 15:36 33.89601 -118.50839 3412 ft 225 kts 232°
2026-04-23 15:36 33.88621 -118.52335 3789 ft 230 kts 232°
2026-04-23 15:37 33.87614 -118.53855 4187 ft 234 kts 232°
2026-04-23 15:37 33.86478 -118.55280 4525 ft 241 kts 219°
2026-04-23 15:37 33.85450 -118.55883 4718 ft 247 kts 199°
2026-04-23 15:37 33.83158 -118.56016 5288 ft 257 kts 174°
2026-04-23 15:38 33.81381 -118.55570 5709 ft 267 kts 166°
2026-04-23 15:38 33.79535 -118.54952 6004 ft 282 kts 163°
2026-04-23 15:38 33.77626 -118.54307 6592 ft 287 kts 164°
2026-04-23 15:38 33.75671 -118.53694 7197 ft 292 kts 166°
2026-04-23 15:39 33.73675 -118.53138 7823 ft 297 kts 167°
2026-04-23 15:39 33.71690 -118.52420 8365 ft 301 kts 155°
2026-04-23 15:39 33.70023 -118.50904 8903 ft 303 kts 131°
2026-04-23 15:39 33.68904 -118.48767 9515 ft 304 kts 116°
2026-04-23 15:40 33.68020 -118.46415 9947 ft 314 kts 112°
2026-04-23 15:40 33.67241 -118.43924 10300 ft 327 kts 108°
2026-04-23 15:40 33.66753 -118.42180 10452 ft 338 kts 108°
2026-04-23 15:40 33.65977 -118.39441 10658 ft 356 kts 108°
2026-04-23 15:41 33.65068 -118.35495 10938 ft 377 kts 102°
2026-04-23 15:41 33.64692 -118.33426 11092 ft 387 kts 101°
2026-04-23 15:41 33.64311 -118.30174 11420 ft 399 kts 93°
2026-04-23 15:41 33.64290 -118.26805 11857 ft 408 kts 86°
2026-04-23 15:42 33.64500 -118.23385 12313 ft 413 kts 79°
2026-04-23 15:42 33.65334 -118.20111 12843 ft 411 kts 61°
2026-04-23 15:42 33.66947 -118.17312 13390 ft 407 kts 44°
2026-04-23 15:42 33.68969 -118.14930 13852 ft 411 kts 39°
2026-04-23 15:43 33.71079 -118.12585 14391 ft 414 kts 37°
2026-04-23 15:43 33.73255 -118.10304 14972 ft 418 kts 36°
2026-04-23 15:43 33.75500 -118.08067 15500 ft 421 kts 34°
2026-04-23 15:43 33.77827 -118.05906 16049 ft 424 kts 32°
2026-04-23 15:44 33.80213 -118.03797 16563 ft 428 kts 31°
2026-04-23 15:44 33.82631 -118.01675 17051 ft 433 kts 31°
2026-04-23 15:44 33.85062 -117.99498 17542 ft 437 kts 31°
2026-04-23 15:44 33.87512 -117.97290 18047 ft 441 kts 31°
2026-04-23 15:45 33.89977 -117.95068 18573 ft 444 kts 31°
2026-04-23 15:45 33.92422 -117.92849 19045 ft 448 kts 32°
2026-04-23 15:45 33.94912 -117.90572 19552 ft 451 kts 32°
2026-04-23 15:45 33.97423 -117.88273 20034 ft 454 kts 32°
2026-04-23 15:46 33.99958 -117.85961 20503 ft 458 kts 32°
2026-04-23 15:46 34.02499 -117.83635 20966 ft 461 kts 32°
2026-04-23 15:46 34.05060 -117.81287 21389 ft 465 kts 32°
2026-04-23 15:46 34.07585 -117.78811 21797 ft 471 kts 37°
2026-04-23 15:47 34.09946 -117.76035 22202 ft 477 kts 42°
2026-04-23 15:47 34.12196 -117.73069 22673 ft 480 kts 45°
2026-04-23 15:47 34.14348 -117.69958 23062 ft 485 kts 47°
2026-04-23 15:47 34.16450 -117.66751 23496 ft 488 kts 48°
2026-04-23 15:48 34.18567 -117.63529 23856 ft 492 kts 48°
2026-04-23 15:48 34.20716 -117.60306 24277 ft 494 kts 47°
2026-04-23 15:48 34.22889 -117.57060 24625 ft 498 kts 47°
2026-04-23 15:48 34.25077 -117.53793 24969 ft 502 kts 47°
2026-04-23 15:49 34.27279 -117.50506 25333 ft 505 kts 47°
2026-04-23 15:49 34.29499 -117.47193 25694 ft 509 kts 47°
2026-04-23 15:49 34.31727 -117.43859 26077 ft 511 kts 47°
2026-04-23 15:49 34.33943 -117.40546 26402 ft 515 kts 47°
2026-04-23 15:50 34.36217 -117.37179 26741 ft 518 kts 47°
2026-04-23 15:50 34.38500 -117.33779 27086 ft 522 kts 47°
2026-04-23 15:50 34.40789 -117.30347 27375 ft 526 kts 47°
2026-04-23 15:50 34.43092 -117.26881 27703 ft 529 kts 47°
2026-04-23 15:51 34.45407 -117.23394 28049 ft 532 kts 47°
2026-04-23 15:51 34.47729 -117.19892 28359 ft 535 kts 47°
2026-04-23 15:51 34.50068 -117.16365 28683 ft 538 kts 47°
2026-04-23 15:51 34.52420 -117.12817 29009 ft 540 kts 47°
2026-04-23 15:52 34.54781 -117.09254 29333 ft 542 kts 47°
2026-04-23 15:52 34.57170 -117.05719 29724 ft 542 kts 46°
2026-04-23 15:52 34.59601 -117.02212 30095 ft 543 kts 45°
2026-04-23 15:52 34.62030 -116.98698 30427 ft 544 kts 46°
2026-04-23 15:53 34.64451 -116.95173 30794 ft 544 kts 46°
2026-04-23 15:53 34.66888 -116.91656 31108 ft 545 kts 45°
2026-04-23 15:53 34.69331 -116.88118 31188 ft 547 kts 46°
2026-04-23 15:54 34.74188 -116.81001 31144 ft 546 kts 46°
2026-04-23 15:54 34.79030 -116.73877 31141 ft 546 kts 46°
2026-04-23 15:55 34.83836 -116.66801 31140 ft 546 kts 46°
2026-04-23 15:55 34.88743 -116.59740 31137 ft 546 kts 43°
2026-04-23 15:56 34.93905 -116.52961 31133 ft 545 kts 41°
2026-04-23 15:56 34.99050 -116.46176 31127 ft 544 kts 42°
2026-04-23 15:57 35.04145 -116.39343 31122 ft 544 kts 43°